[[{"header":{"parameterUnit":"m.s-1","parameterCategory":1,"la1":30.2991,"la2":30.254,"lo1":-89.0895,"lo2":-89.0444,"dy":0.0017,"dx":0.0017,"nx":28,"ny":28,"refTime":"2023-09-25T21:00:00:Z","depth":0,"parameterNumber":2,"parameterNumberName":"U-component_of_WINDS"},"data":[0,0,0,0,0,0,0,0,0,0,0,0,0,0,0,0,0,0,0,0,0,0,0,0,0,0,0,0,0,0,0,0,0,0,0,0,0,0,0,0,0,0,0,0,0,0,0,0,0,0,0,0,0,0,0,0,0,0,-3.9618,-3.9619,0,-3.9656,-3.9657,-3.9657,-3.9565,-3.9562,-3.9559,-3.9556,-3.9599,-3.9602,-3.9606,0,0,0,0,0,0,0,0,0,0,0,0,0,-3.9469,-3.9473,-3.9618,-3.9619,-3.9619,-3.9656,-3.9657,-3.9657,-3.9565,-3.9562,-3.9558,-3.9555,-3.9597,-3.9602,-3.9606,0,0,0,0,0,0,0,0,0,0,0,0,0,-3.9524,-3.9474,-3.9618,-3.9578,-3.9574,-3.9656,-3.9657,-3.9657,-3.9566,-3.9562,-3.9557,-3.9553,-3.9596,-3.9601,-3.9607,-3.9731,0,0,-3.9625,-3.9627,0,0,0,0,0,0,0,0,-3.9521,-3.9529,-3.9583,-3.9581,-3.9577,-3.9601,-3.962,-3.9682,-3.9567,-3.9569,-3.9556,-3.9551,-3.9603,-3.9608,-3.9625,-3.9733,-3.9735,-3.9625,-3.9629,-3.9631,-3.9633,0,0,0,0,0,0,0,-3.9517,-3.9527,-3.9633,-3.9584,-3.958,-3.9559,-3.9562,-3.9631,-3.9611,-3.9569,-3.9562,-3.9568,-3.9601,-3.962,-3.9625,-3.9735,-3.9625,-3.963,-3.9634,-3.9636,-3.9949,-3.9953,0,0,0,0,0,0,-3.9518,-3.9525,-3.9632,-3.9634,-3.9537,-3.9565,-3.9568,-3.9598,-3.9609,-3.9607,-3.9572,-3.9563,-3.9612,-3.9619,-3.9626,-3.9774,-3.9631,-3.9637,-3.964,-3.9944,-3.995,-3.9955,0,0,0,0,0,0,-3.9515,-3.9528,-3.963,-3.9578,-3.9589,-3.9572,-3.9606,-3.9601,-3.962,-3.9611,-3.9608,-3.9594,-3.9609,-3.9618,-3.9706,-3.9774,-3.9639,-3.9645,-3.9938,-3.9946,-3.9952,-4.0068,0,0,0,0,0,0,-3.9511,-3.9528,-3.9574,-3.9579,-3.9592,-3.9708,-3.9611,-3.9605,-3.963,-3.9619,-3.9632,-3.963,-3.9606,-3.9698,-3.9712,-3.9779,-3.9649,-3.9932,-3.9942,-3.995,-4.0058,-4.0078,-4.0096,0,0,0,0,0,-3.9506,-3.9605,-3.9577,-3.959,-3.9649,-3.9712,-3.972,-3.9689,-3.9635,-3.9682,-3.9677,-3.963,-3.9764,-3.9707,-3.9722,-3.9793,-3.9928,-3.9939,-3.9949,-4.005,-4.0074,-4.0095,0,0,0,0,0,0,-3.9608,-3.9605,-3.9573,-3.9676,-3.9696,-3.9697,-3.9754,-3.9716,-3.9751,-3.974,-3.9702,-3.9706,-3.9801,-3.9805,-3.9743,-3.9914,-3.9837,-3.9851,-3.9908,-3.9931,-3.995,-3.9947,-3.9654,0,0,0,0,0,-3.9643,-3.9694,-3.9688,-3.978,-3.9791,-3.9772,-3.9798,-3.9773,-3.9791,-3.9799,-3.98,-3.9821,-3.9868,-3.99,-3.9942,-4.0058,-4.0061,-4.0114,-4.0133,-4.0148,-4.0162,-4.0226,-4.025,-3.9991,-3.9991,-3.999,0,0,-3.9715,-3.9719,-3.9753,-3.9801,-3.9812,-3.9867,-3.9779,-3.984,-3.9881,-3.9808,-3.9891,-3.9893,-3.9914,-4.0017,-4.0062,-4.0023,-4.0234,-4.0162,-4.0175,-4.018,-4.0239,-4.0264,-4.0286,-3.9998,-3.9997,-3.9996,0,0,-3.9874,-3.9882,-3.996,-3.9973,-3.9992,-3.9979,-3.9998,-4.0005,-4.0003,-4.0086,-4.0033,-4.0082,-4.0163,-4.018,-4.02,-4.0368,-4.0326,-4.0383,-4.0482,-4.0544,-4.0565,-4.0583,-4.0645,-4.0667,-4.0396,-4.0396,-4.0397,0,-3.9961,-4.0041,-4.0005,-4.007,-4.0094,-4.003,-4.011,-4.0125,-4.0158,-4.0176,-4.0131,-4.0233,-4.0242,-4.035,-4.0391,-4.0408,-4.043,-4.0382,-4.0564,-4.0582,-4.0598,-4.0657,-4.068,-4.0403,-4.0402,-4.0402,-4.0401,0,-4.0148,-4.0204,-4.0265,-4.0298,-4.0327,-4.04,-4.0377,-4.0412,-4.0385,-4.0377,-4.0463,-4.0472,-4.0516,-4.0539,-4.0513,-4.0644,-4.0619,-4.057,-4.0492,-4.0631,-4.0685,-4.0707,-4.0413,-4.0411,-4.0409,-4.0407,0,0,-4.0372,-4.0385,-4.0408,-4.0423,-4.0439,-4.0483,-4.0553,-4.0596,-4.0628,-4.0652,-4.0712,-4.0783,-4.0738,-4.0761,-4.0736,-4.0791,-4.0926,-4.0736,-4.0736,-4.0772,-4.1073,-4.111,-4.1137,-4.0898,-4.0902,-4.0906,-4.1072,0,-4.0531,-4.0651,-4.0622,-4.0741,-4.0794,-4.0735,-4.0797,-4.0815,-4.081,-4.0855,-4.0849,-4.0901,-4.0837,-4.085,-4.0902,-4.0899,-4.0986,-4.0886,-4.0955,-4.0958,-4.0953,-4.1165,-4.1204,-4.1361,-4.1092,-4.1096,-4.1099,0,-4.0732,-4.0764,-4.0889,-4.0899,-4.092,-4.0976,-4.1013,-4.1056,-4.1077,-4.1069,-4.1095,-4.106,-4.1132,-4.1053,-4.1152,-4.1085,-4.1111,-4.1114,-4.112,-4.1126,-4.1038,-4.1179,-4.1409,-4.1434,-4.1131,-4.1129,-4.1126,0,-4.0885,-4.096,-4.1045,-4.1059,-4.1072,-4.1113,-4.1121,-4.1136,-4.1164,-4.1198,-4.1216,-4.1258,-4.1281,-4.1315,-4.1294,-4.1237,-4.1398,-4.1316,-4.1395,-4.1396,-4.1432,-4.1431,-4.1673,-4.1448,-4.1447,-4.1447,-4.1446,0,-4.1066,-4.1145,-4.1114,-4.1167,-4.1254,-4.1221,-4.1309,-4.131,-4.1324,-4.1377,-4.1329,-4.138,-4.1347,-4.1396,-4.138,-4.1466,-4.1477,-4.1474,-4.1469,-4.1479,-4.148,-4.1497,-4.1486,-4.1453,-4.1452,-4.145,-4.1449,0,-4.1253,-4.1234,-4.1323,-4.1329,-4.1332,-4.1397,-4.1402,-4.1452,-4.1443,-4.1511,-4.1525,-4.1512,-4.1567,-4.1549,-4.1608,-4.1597,-4.1707,-4.1688,-4.1701,-4.1696,-4.1777,-4.1771,-4.204,-4.2074,-4.1826,-4.1828,-4.183,0,-4.137,-4.1429,-4.1441,-4.1473,-4.1484,-4.1535,-4.1564,-4.1534,-4.1566,-4.1594,-4.1641,-4.1692,-4.1731,-4.1822,-4.1819,-4.1865,-4.1847,-4.1938,-4.1854,-4.1863,-4.1851,-4.1848,-4.1855,-4.1956,-4.1958,-4.1961,-4.1963,0,-4.158,-4.1569,-4.1611,-4.1652,-4.1687,-4.1718,-4.1744,-4.1773,-4.1744,-4.1783,-4.1839,-4.1869,-4.193,-4.1982,-4.2024,-4.2033,-4.1995,-4.1989,-4.201,-4.2022,-4.2028,-4.2028,-4.1748,-4.1983,-4.1981,-4.198,-4.1979,-4.1978,-4.1737,-4.1788,-4.1805,-4.1854,-4.1871,-4.1897,-4.1944,-4.1942,-4.1987,-4.2034,-4.2014,-4.2079,-4.2099,-4.2151,-4.2166,-4.2218,-4.2183,-4.2213,-4.2221,-4.2229,-4.224,-4.2019,-4.2225,-4.2224,-4.2224,-4.2223,-4.2223,0,-4.1946,-4.1954,-4.2,-4.2039,-4.2078,-4.2037,-4.2065,-4.2101,-4.2158,-4.218,-4.222,-4.2285,-4.2336,-4.2337,-4.2385,-4.2426,-4.241,-4.244,-4.2437,-4.244,-4.2268,-4.2246,-4.2452,-4.2452,-4.2452,-4.2452,-4.2452,-4.2452,-4.206,-4.2145,-4.2136,-4.2229,-4.2236,-4.2299,-4.2319,-4.2343,-4.2361,-4.2435,-4.2477,-4.2477,-4.2492,-4.254,-4.2586,-4.2585,-4.2606,-4.2643,-4.2636,-4.2475,-4.2452,-4.243,-4.2409,-4.2647,-4.2647,-4.2804,-4.2806,-4.2807]},{"header":{"parameterUnit":"m.s-1","parameterCategory":1,"la1":30.2991,"la2":30.254,"lo1":-89.0895,"lo2":-89.0444,"dy":0.0017,"dx":0.0017,"nx":28,"ny":28,"refTime":"2023-09-25T21:00:00:Z","depth":0,"parameterNumber":3,"parameterNumberName":"V-component_of_WINDS"},"data":[0,0,0,0,0,0,0,0,0,0,0,0,0,0,0,0,0,0,0,0,0,0,0,0,0,0,0,0,0,0,0,0,0,0,0,0,0,0,0,0,0,0,0,0,0,0,0,0,0,0,0,0,0,0,0,0,0,0,-0.344,-0.344,0,-0.3449,-0.3449,-0.3449,-0.3423,-0.3423,-0.3422,-0.3421,-0.3432,-0.3433,-0.3434,0,0,0,0,0,0,0,0,0,0,0,0,0,-0.3404,-0.3405,-0.344,-0.344,-0.344,-0.3449,-0.3449,-0.3449,-0.3423,-0.3422,-0.3422,-0.3421,-0.3432,-0.3433,-0.3434,0,0,0,0,0,0,0,0,0,0,0,0,0,-0.3417,-0.3406,-0.344,-0.3429,-0.3428,-0.3449,-0.3449,-0.3449,-0.3424,-0.3422,-0.3421,-0.342,-0.3432,-0.3433,-0.3435,-0.3468,0,0,-0.3439,-0.344,0,0,0,0,0,0,0,0,-0.3417,-0.3419,-0.343,-0.3429,-0.3428,-0.3434,-0.344,-0.3455,-0.3424,-0.3425,-0.3421,-0.342,-0.3434,-0.3435,-0.3439,-0.3468,-0.3469,-0.3439,-0.344,-0.3441,-0.3442,0,0,0,0,0,0,0,-0.3416,-0.3418,-0.3444,-0.343,-0.3429,-0.3424,-0.3424,-0.3443,-0.3436,-0.3425,-0.3423,-0.3424,-0.3433,-0.3438,-0.344,-0.3469,-0.3439,-0.3441,-0.3442,-0.3442,-0.3527,-0.3529,0,0,0,0,0,0,-0.3416,-0.3418,-0.3443,-0.3444,-0.3419,-0.3425,-0.3426,-0.3433,-0.3436,-0.3435,-0.3425,-0.3423,-0.3436,-0.3438,-0.344,-0.3481,-0.3441,-0.3443,-0.3443,-0.3526,-0.3528,-0.3529,0,0,0,0,0,0,-0.3415,-0.3419,-0.3443,-0.343,-0.3433,-0.3427,-0.3436,-0.3434,-0.3439,-0.3436,-0.3435,-0.3432,-0.3435,-0.3438,-0.3461,-0.3481,-0.3443,-0.3445,-0.3524,-0.3527,-0.3528,-0.3562,0,0,0,0,0,0,-0.3414,-0.3418,-0.3431,-0.3431,-0.3434,-0.3464,-0.3437,-0.3435,-0.3441,-0.3438,-0.3442,-0.3441,-0.3434,-0.3459,-0.3463,-0.3482,-0.3446,-0.3523,-0.3525,-0.3528,-0.3559,-0.3565,-0.357,0,0,0,0,0,-0.3413,-0.344,-0.3431,-0.3435,-0.3448,-0.3465,-0.3467,-0.3458,-0.3443,-0.3456,-0.3454,-0.3441,-0.3477,-0.3462,-0.3466,-0.3486,-0.3522,-0.3525,-0.3528,-0.3557,-0.3564,-0.3569,0,0,0,0,0,0,-0.3443,-0.344,-0.343,-0.3457,-0.3461,-0.346,-0.3476,-0.3465,-0.3474,-0.3472,-0.3461,-0.3462,-0.3488,-0.3489,-0.3471,-0.3519,-0.3497,-0.3501,-0.3518,-0.3524,-0.353,-0.353,-0.3447,0,0,0,0,0,-0.3452,-0.3465,-0.3462,-0.3486,-0.3489,-0.3482,-0.3489,-0.3481,-0.3486,-0.3488,-0.3488,-0.3493,-0.3506,-0.3515,-0.3526,-0.3558,-0.356,-0.3574,-0.3579,-0.3583,-0.3588,-0.3607,-0.3614,-0.3539,-0.3539,-0.3539,0,0,-0.3473,-0.3473,-0.3482,-0.3492,-0.3495,-0.3509,-0.3484,-0.35,-0.3511,-0.349,-0.3513,-0.3513,-0.3519,-0.3547,-0.3559,-0.3549,-0.3608,-0.3587,-0.3591,-0.3593,-0.3611,-0.3618,-0.3624,-0.3541,-0.3541,-0.354,0,0,-0.3518,-0.3518,-0.3539,-0.3542,-0.3546,-0.3541,-0.3546,-0.3547,-0.3546,-0.3568,-0.3553,-0.3566,-0.3588,-0.3593,-0.3598,-0.3645,-0.3634,-0.3648,-0.3677,-0.3696,-0.3702,-0.3707,-0.3726,-0.3733,-0.3652,-0.3652,-0.3652,0,-0.3544,-0.3564,-0.3552,-0.357,-0.3576,-0.3556,-0.3578,-0.3581,-0.3589,-0.3594,-0.3581,-0.3609,-0.361,-0.3641,-0.3652,-0.3656,-0.3663,-0.365,-0.3702,-0.3707,-0.3712,-0.373,-0.3737,-0.3654,-0.3654,-0.3654,-0.3654,0,-0.3596,-0.3611,-0.3628,-0.3635,-0.3643,-0.3662,-0.3654,-0.3663,-0.3655,-0.3652,-0.3675,-0.3677,-0.3689,-0.3695,-0.3687,-0.3724,-0.3718,-0.3703,-0.3682,-0.3721,-0.3738,-0.3745,-0.3657,-0.3656,-0.3656,-0.3655,0,0,-0.3663,-0.3663,-0.3669,-0.3673,-0.3675,-0.3687,-0.3706,-0.3717,-0.3726,-0.3731,-0.3749,-0.3767,-0.3754,-0.376,-0.3752,-0.3768,-0.3808,-0.3752,-0.3752,-0.3764,-0.3852,-0.3865,-0.3873,-0.3799,-0.38,-0.3801,-0.3852,0,-0.371,-0.3742,-0.3732,-0.3765,-0.378,-0.3761,-0.3777,-0.3781,-0.3779,-0.3791,-0.3788,-0.3802,-0.3782,-0.3786,-0.3801,-0.38,-0.3825,-0.3795,-0.3817,-0.3818,-0.382,-0.3881,-0.3895,-0.3943,-0.3858,-0.3859,-0.386,0,-0.3769,-0.3777,-0.3812,-0.3812,-0.3818,-0.3833,-0.3843,-0.3854,-0.3859,-0.3856,-0.3862,-0.3851,-0.3871,-0.3847,-0.3875,-0.3855,-0.3863,-0.3864,-0.3865,-0.387,-0.3844,-0.389,-0.3958,-0.3967,-0.387,-0.3869,-0.3869,0,-0.3818,-0.3836,-0.386,-0.3863,-0.3864,-0.3876,-0.3876,-0.3879,-0.3887,-0.3895,-0.39,-0.3911,-0.3918,-0.3926,-0.3919,-0.3902,-0.395,-0.3925,-0.395,-0.395,-0.3964,-0.3964,-0.4037,-0.3963,-0.3963,-0.3963,-0.3963,0,-0.3873,-0.3896,-0.3882,-0.3897,-0.3923,-0.391,-0.3936,-0.3934,-0.3937,-0.3952,-0.3935,-0.395,-0.3938,-0.3952,-0.3946,-0.3972,-0.3974,-0.3974,-0.3973,-0.3977,-0.3978,-0.3985,-0.3983,-0.3965,-0.3965,-0.3964,-0.3964,0,-0.3933,-0.3924,-0.395,-0.3948,-0.3948,-0.3967,-0.3965,-0.398,-0.3975,-0.3995,-0.3999,-0.3992,-0.4008,-0.4,-0.4017,-0.4013,-0.4047,-0.404,-0.4046,-0.4045,-0.4072,-0.4071,-0.4156,-0.4167,-0.4083,-0.4084,-0.4084,0,-0.3971,-0.3988,-0.3988,-0.3996,-0.3998,-0.4012,-0.402,-0.4007,-0.4016,-0.4022,-0.4036,-0.405,-0.4061,-0.4087,-0.4084,-0.4097,-0.4092,-0.412,-0.4094,-0.4099,-0.4096,-0.4097,-0.41,-0.4127,-0.4128,-0.4129,-0.4129,0,-0.4039,-0.4034,-0.4045,-0.4055,-0.4064,-0.4072,-0.4078,-0.4086,-0.4073,-0.4084,-0.41,-0.4108,-0.4124,-0.414,-0.4151,-0.4152,-0.414,-0.4137,-0.4144,-0.4151,-0.4155,-0.4157,-0.4064,-0.4136,-0.4136,-0.4135,-0.4135,-0.4134,-0.4091,-0.4107,-0.4109,-0.4122,-0.4125,-0.4131,-0.4145,-0.4141,-0.4154,-0.4166,-0.4157,-0.4177,-0.418,-0.4194,-0.4197,-0.4213,-0.4202,-0.4211,-0.4214,-0.4218,-0.4223,-0.415,-0.4214,-0.4214,-0.4214,-0.4214,-0.4214,0,-0.4162,-0.4162,-0.4174,-0.4183,-0.4194,-0.4178,-0.4184,-0.4195,-0.4211,-0.4215,-0.4226,-0.4245,-0.4259,-0.4257,-0.427,-0.4283,-0.4278,-0.4287,-0.4288,-0.4289,-0.4231,-0.4225,-0.4291,-0.4291,-0.4291,-0.4291,-0.4291,-0.4291,-0.42,-0.4226,-0.422,-0.4247,-0.4247,-0.4265,-0.427,-0.4276,-0.4279,-0.4301,-0.4312,-0.431,-0.4312,-0.4325,-0.4338,-0.4337,-0.4345,-0.4357,-0.4354,-0.4301,-0.4293,-0.4286,-0.428,-0.4358,-0.4358,-0.4412,-0.4413,-0.4413]}]]